Simultaneous Nadir Overpasses (SNOs) Predictions

Prediction of SNOs between GOES-16 and METOP-B Satellite Orbit:

Table of predicted SNOs for the next 14.0 days since TLE Epoch: 11/7/2020
Index Date Time (GOES-16) GOES-16 Lat,Lon METOP-B Lat,Lon Distance(km) Time Diff (sec)
1 11/07/2020 14:40:53 -0.03, -75.20 0.46, -77.28 237.45 80
2 11/08/2020 14:17:35 -0.03, -75.21 -0.69, -72.29 332.23 80
3 11/10/2020 02:39:15 0.02, -75.18 -0.34, -76.89 193.95 80
4 11/11/2020 02:15:56 0.02, -75.19 0.74, -71.89 376.05 80
5 11/12/2020 14:37:29 -0.02, -75.24 0.24, -76.46 138.41 80
6 11/13/2020 14:14:09 -0.02, -75.25 -0.85, -71.46 431.89 80
7 11/15/2020 02:35:50 0.02, -75.23 -0.18, -76.05 93.40 80
8 11/16/2020 02:12:31 0.02, -75.24 0.97, -71.06 477.08 80
9 11/17/2020 14:31:24 -0.01, -75.30 0.07, -75.62 36.77 80
10 11/20/2020 02:29:44 0.00, -75.30 -0.00, -75.21 10.14 80
